Weather reports worldwide

Advertisment
Ile Rousse, France (7753): temperature & dewpoint: 05.12.2019 08:00:00 - 11.12.2019 08:00:00 (CET)Ile Rousse, France (7753): wind speed & gusts: 05.12.2019 08:00:00 - 11.12.2019 08:00:00 (CET)Ile Rousse, France (7753): wind direction: 05.12.2019 08:00:00 - 11.12.2019 08:00:00 (CET)Ile Rousse, France (7753): reduced air pressure: 05.12.2019 08:00:00 - 11.12.2019 08:00:00 (CET)Ile Rousse, France (7753): visibility: 05.12.2019 08:00:00 - 11.12.2019 08:00:00 (CET)Ile Rousse, France (7753): precipitation: 05.12.2019 08:00:00 - 11.12.2019 08:00:00 (CET)
Date & Time tt [°C] td [°C] ff [km/h] ff [kn] fx [km/h] fx [kn] dd ppp [hPa] vv [km] rr [mm]
11.12.2019 08:00:00 10,2 0,5 14 7 20 11 SE 1017,2 - 0,0
11.12.2019 07:00:00 10,0 0,0 16 8 33 18 SSE 1017,6 - 0,0
11.12.2019 06:00:00 10,9 -0,3 24 13 36 19 ESE 1017,4 - 0,0
11.12.2019 05:00:00 10,7 -0,8 19 10 34 19 SE 1017,8 - 0,0
11.12.2019 04:00:00 10,9 -1,2 22 12 33 18 ESE 1018,1 20 0,0
11.12.2019 03:00:00 10,7 -0,5 25 14 36 20 ESE 1018,5 - 0,0
11.12.2019 02:00:00 10,6 0,0 26 14 33 18 ESE 1018,7 - 0,0
11.12.2019 01:00:00 10,7 0,4 22 12 34 18 ESE 1019,4 - 0,0
11.12.2019 00:00:00 11,2 0,9 29 16 39 21 ESE 1019,2 - 0,0
10.12.2019 23:00:00 11,0 1,0 26 14 38 21 ESE 1019,2 - 0,0
10.12.2019 22:00:00 11,6 1,5 29 15 37 20 ESE 1018,9 - 0,0
10.12.2019 21:00:00 11,2 2,0 28 15 35 19 E 1018,7 - 0,0
10.12.2019 20:00:00 11,5 1,7 13 7 21 11 ENE 1018,5 - 0,0
10.12.2019 19:00:00 11,8 1,7 16 8 19 11 E 1018,0 - 0,0
10.12.2019 18:00:00 12,0 1,9 13 7 23 12 E 1017,2 - 0,0
10.12.2019 17:00:00 12,1 3,8 18 10 34 18 E 1016,6 - 0,0
10.12.2019 16:00:00 13,9 4,7 24 13 33 18 ENE 1016,3 18 0,0
10.12.2019 15:00:00 14,3 5,1 24 13 34 19 NE 1016,2 - 0,0
10.12.2019 14:00:00 14,7 5,5 26 14 37 20 NE 1015,9 - 0,0
10.12.2019 13:00:00 14,9 4,8 24 13 51 27 NE 1015,8 20 0,0
10.12.2019 12:00:00 14,2 5,8 37 20 54 29 NNE 1015,8 - 0,0
10.12.2019 11:00:00 13,9 6,5 44 24 55 30 NNE 1015,5 - 0,0
10.12.2019 10:00:00 13,8 5,9 39 21 58 32 NNE 1015,0 - 0,0
10.12.2019 09:00:00 13,6 4,7 46 25 64 34 NNE 1014,2 - 0,0
10.12.2019 08:00:00 13,8 4,4 53 29 67 36 NNE 1013,3 - 0,0
10.12.2019 07:00:00 14,0 3,4 50 27 68 37 NNE 1012,4 20 0,0
10.12.2019 06:00:00 12,9 5,1 21 11 56 31 ENE 1011,5 - 0,0
10.12.2019 05:00:00 12,8 4,5 8 4 38 21 SE 1010,8 - 0,0
10.12.2019 04:00:00 13,0 7,2 19 10 35 19 N 1010,2 - 0,0
10.12.2019 03:00:00 13,2 3,8 11 6 27 15 WNW 1009,4 - 0,0
10.12.2019 02:00:00 12,7 2,5 7 4 24 13 SW 1008,6 - 0,0
10.12.2019 01:00:00 11,9 4,6 10 5 40 22 SW 1008,6 - 0,0
10.12.2019 00:00:00 12,0 5,4 26 14 57 31 SW 1008,3 - 0,0
09.12.2019 23:00:00 12,0 5,2 35 19 64 35 WSW 1007,9 - 0,0
09.12.2019 22:00:00 12,2 5,4 41 22 67 36 SW 1007,8 - 0,0
09.12.2019 21:00:00 12,7 5,1 39 21 60 32 SW 1008,2 - 0,0
09.12.2019 20:00:00 12,9 5,1 37 20 74 40 WSW 1008,4 - 0,0
09.12.2019 19:00:00 13,4 5,8 42 23 79 43 W 1008,2 15 0,0
09.12.2019 18:00:00 13,1 6,7 50 27 99 54 WSW 1008,3 - 0,0
09.12.2019 17:00:00 12,8 5,7 62 34 112 61 WSW 1007,3 - 0,0
09.12.2019 16:00:00 13,1 6,4 58 31 103 56 WSW 1008,1 15 0,0
09.12.2019 15:00:00 13,6 6,0 55 30 91 49 WSW 1008,6 - 0,0
09.12.2019 14:00:00 14,6 5,1 63 34 101 55 SW 1008,7 - 0,0
09.12.2019 13:00:00 13,5 5,1 63 34 103 56 WSW 1009,4 18 0,0
09.12.2019 12:00:00 14,4 6,0 61 33 103 56 WSW 1010,3 - 0,0
09.12.2019 11:00:00 14,1 6,0 62 34 104 56 WSW 1010,4 - 0,0
09.12.2019 10:00:00 13,7 4,8 57 31 102 55 WSW 1010,8 20 0,0
09.12.2019 09:00:00 13,5 8,1 58 31 98 53 WSW 1010,5 - 0,0
09.12.2019 08:00:00 14,1 9,5 54 29 93 50 WSW 1010,9 - 0,0
09.12.2019 07:00:00 14,3 9,9 63 34 102 55 WSW 1010,1 20 0,0
09.12.2019 06:00:00 14,3 9,3 69 38 99 54 SW 1009,1 - 0,0
09.12.2019 05:00:00 14,3 8,0 63 34 93 50 WSW 1010,1 - 0,0
09.12.2019 04:00:00 13,7 7,7 46 25 79 43 WSW 1011,6 18 0,0
09.12.2019 03:00:00 14,3 6,9 45 24 84 46 SW 1013,2 - 0,0
09.12.2019 02:00:00 13,7 7,7 53 29 77 42 WSW 1014,0 - 0,0
09.12.2019 01:00:00 13,5 7,0 36 19 75 41 WSW 1015,1 - 0,0
09.12.2019 00:00:00 13,4 8,0 37 20 66 36 WSW 1015,5 - 0,0
08.12.2019 23:00:00 13,2 7,6 27 15 51 27 WSW 1016,6 - 0,0
08.12.2019 22:00:00 12,9 8,0 32 17 48 26 SW 1017,1 - 0,0
08.12.2019 21:00:00 12,7 8,0 23 13 41 22 SSW 1017,3 - 0,0
08.12.2019 20:00:00 12,8 8,5 24 13 36 19 SSW 1017,6 - 0,0
08.12.2019 19:00:00 12,7 9,0 17 9 30 16 SW 1017,7 20 0,0
08.12.2019 18:00:00 13,0 9,8 23 13 54 29 SW 1017,5 - 0,0
08.12.2019 17:00:00 13,4 10,4 34 18 62 34 WSW 1017,5 - 0,0
08.12.2019 16:00:00 14,6 10,4 37 20 64 34 WSW 1017,4 25 0,0
08.12.2019 15:00:00 15,7 9,6 33 18 58 32 W 1017,7 - 0,0
08.12.2019 14:00:00 16,5 8,9 31 17 51 27 WSW 1017,9 - 0,0
08.12.2019 13:00:00 16,6 8,5 29 16 48 26 W 1018,5 25 0,0
08.12.2019 12:00:00 17,0 7,1 17 9 41 22 WSW 1019,2 - 0,0
08.12.2019 11:00:00 16,2 6,3 23 12 44 24 WSW 1020,0 - 0,0
08.12.2019 10:00:00 15,1 5,6 4 2 13 7 SSW 1020,7 30 0,0
08.12.2019 09:00:00 14,0 6,4 11 6 16 9 S 1020,6 - 0,0
08.12.2019 08:00:00 13,4 5,5 11 6 24 13 S 1020,1 - 0,0
08.12.2019 07:00:00 12,7 5,4 10 6 15 8 S 1019,7 20 0,0
08.12.2019 06:00:00 13,3 5,7 11 6 14 7 SE 1019,4 - 0,0
08.12.2019 05:00:00 13,2 5,8 6 3 11 6 ENE 1019,3 - 0,0
08.12.2019 04:00:00 13,0 6,1 12 6 15 8 SE 1019,3 15 0,0
08.12.2019 03:00:00 12,4 6,7 13 7 16 9 E 1019,6 - 0,0
08.12.2019 02:00:00 13,5 6,8 13 7 18 10 S 1019,4 - 0,0
08.12.2019 01:00:00 13,2 6,8 7 4 13 7 SE 1020,0 - 0,0
08.12.2019 00:00:00 13,3 6,6 9 5 45 25 ESE 1020,2 - 0,0
07.12.2019 23:00:00 14,0 6,8 27 15 40 22 SSW 1019,9 - 0,0
07.12.2019 22:00:00 13,8 7,1 22 12 37 20 SW 1020,1 - 0,0
07.12.2019 21:00:00 13,1 6,7 18 10 37 20 WSW 1019,4 - 0,0
07.12.2019 20:00:00 14,1 6,9 20 11 41 22 SW 1019,4 - 0,0
07.12.2019 19:00:00 13,9 7,6 26 14 55 30 SW 1019,2 - 0,0
07.12.2019 18:00:00 13,7 8,7 31 17 53 28 SW 1018,7 - 0,0
07.12.2019 17:00:00 14,6 8,1 29 15 45 24 SW 1018,1 - 0,0
07.12.2019 16:00:00 16,0 10,1 17 9 46 25 WSW 1018,0 20 0,0
07.12.2019 15:00:00 16,4 9,8 28 15 60 32 WSW 1017,6 - 0,0
07.12.2019 14:00:00 16,8 9,2 30 16 57 31 WSW 1017,7 - 0,0
07.12.2019 13:00:00 16,2 11,4 32 18 68 37 W 1018,3 - 0,0
07.12.2019 12:00:00 15,5 11,7 39 21 64 34 W 1018,8 - 0,0
07.12.2019 11:00:00 15,8 10,8 25 14 57 31 WSW 1019,6 - 0,0
07.12.2019 10:00:00 14,3 10,7 32 18 52 28 WSW 1019,6 25 0,0
07.12.2019 09:00:00 13,1 10,1 22 12 44 24 WSW 1019,6 - 0,0
07.12.2019 08:00:00 12,5 10,6 27 14 52 28 WSW 1019,4 - 0,0
07.12.2019 07:00:00 12,8 11,2 28 15 50 27 WSW 1019,2 - 0,0
07.12.2019 06:00:00 12,9 11,1 29 16 49 26 WSW 1019,0 - 0,0
07.12.2019 05:00:00 12,9 9,3 22 12 45 24 SW 1019,1 - 0,0
07.12.2019 04:00:00 13,3 8,6 25 14 39 21 SW 1019,4 15 0,0
07.12.2019 03:00:00 13,1 8,4 16 9 31 17 WSW 1020,0 - 0,0
07.12.2019 02:00:00 13,5 8,3 13 7 19 11 SW 1020,0 - 0,0
07.12.2019 01:00:00 13,4 8,5 13 7 22 12 WSW 1020,1 - 0,0
07.12.2019 00:00:00 13,7 8,5 13 7 21 11 WSW 1020,5 - 0,0
06.12.2019 23:00:00 13,5 8,5 10 5 22 12 SW 1020,8 - 0,0
06.12.2019 22:00:00 13,6 9,2 4 2 15 8 N 1020,7 - 0,0
06.12.2019 21:00:00 13,6 10,0 3 2 9 5 NW 1020,6 - 0,0
06.12.2019 20:00:00 13,5 10,5 6 3 13 7 SE 1020,8 - 0,0
06.12.2019 19:00:00 13,2 11,3 9 5 12 7 SSE 1020,6 20 0,0
06.12.2019 18:00:00 13,2 11,4 3 2 12 7 ENE 1020,6 - 0,0
06.12.2019 17:00:00 13,7 11,7 10 5 16 9 ESE 1020,3 - 0,0
06.12.2019 16:00:00 14,2 12,4 11 6 15 8 E 1020,6 - 0,0
06.12.2019 15:00:00 14,1 12,1 8 4 19 10 NNE 1020,7 - 0,0
06.12.2019 14:00:00 14,4 12,3 7 4 18 10 W 1021,0 - 0,0
06.12.2019 13:00:00 14,6 12,3 8 4 13 7 NW 1021,5 - 0,0
06.12.2019 12:00:00 14,6 13,0 3 2 16 9 N 1022,0 - 0,0
06.12.2019 11:00:00 13,6 12,8 10 5 26 14 W 1022,8 - 0,0
06.12.2019 10:00:00 13,2 12,3 18 10 28 15 WSW 1022,8 12 0,0
06.12.2019 09:00:00 13,6 11,3 20 11 27 15 WSW 1022,3 - 0,0
06.12.2019 08:00:00 14,3 11,8 3 2 6 4 WSW 1021,9 - 0,0
06.12.2019 07:00:00 14,3 11,8 4 2 8 4 SSW 1021,7 18 0,0
06.12.2019 06:00:00 14,1 11,4 6 3 8 4 SW 1021,6 - 0,0
06.12.2019 05:00:00 13,9 10,5 3 2 12 6 WSW 1021,6 - 0,0
06.12.2019 04:00:00 14,1 10,1 5 3 9 5 W 1021,6 - 0,0
06.12.2019 03:00:00 14,3 9,1 5 3 15 8 WSW 1021,8 - 0,0
06.12.2019 02:00:00 14,4 10,0 6 3 19 11 N 1021,5 - 0,0
06.12.2019 01:00:00 14,7 8,6 16 9 22 12 SW 1021,6 - 0,0
06.12.2019 00:00:00 14,7 8,6 20 11 27 14 SW 1021,8 - 0,0
05.12.2019 23:00:00 14,8 8,3 7 4 9 5 SSW 1021,7 - 0,0
05.12.2019 22:00:00 15,5 8,0 4 2 10 6 S 1021,2 - 0,0
05.12.2019 21:00:00 15,7 8,2 7 4 10 6 SE 1021,4 - 0,0
05.12.2019 20:00:00 15,7 8,2 6 3 8 4 ESE 1021,4 - 0,0
05.12.2019 19:00:00 15,4 8,8 3 1 19 10 NW 1020,8 20 0,0
05.12.2019 18:00:00 15,2 8,2 14 7 19 10 WSW 1020,0 - 0,0
05.12.2019 17:00:00 16,1 8,6 4 2 14 8 NNW 1019,3 - 0,0
05.12.2019 16:00:00 16,9 9,1 4 2 11 6 NE 1018,6 - 0,0
05.12.2019 15:00:00 16,2 10,3 4 2 31 17 W 1018,5 - 0,0
05.12.2019 14:00:00 16,7 8,9 24 13 44 24 SE 1017,7 - 0,0
05.12.2019 13:00:00 16,6 8,5 27 14 59 32 SE 1017,6 - 0,0
05.12.2019 12:00:00 16,7 8,6 34 18 61 33 SE 1017,4 - 0,0
05.12.2019 11:00:00 15,9 8,1 6 4 32 18 SSW 1018,3 - 0,0
05.12.2019 10:00:00 14,9 8,1 18 10 25 14 E 1017,9 - 0,0
05.12.2019 09:00:00 14,6 7,6 5 3 12 7 ESE 1017,4 - 0,0
05.12.2019 08:00:00 15,0 6,0 5 3 18 10 W 1016,8 - 0,0

tt = temperature
td = dewpoint
ff = wind speed
fx = gusts
dd = wind direction
ppp = reduced air pressure
vv = visibility
rr = precipitation

Next stations